This is the latest recevied weather packets stored in our database for station/object DB0WUN-13. If no packets are shown the sender has not sent any weather packets the latest 1 day(s).
| Time | Temp. | Humidity | Pressure | Rain* | Wind** | Luminosity | Snow |
|---|---|---|---|---|---|---|---|
| 1777984545 | 20° C | 57% | 1008 hPa | 0 mm | 1.79 m/s, 25° | 649 W/m² | - |
| 1777984487 | 20° C | 58% | 1007.9 hPa | 0 mm | 2.24 m/s, 324° | 747 W/m² | - |
| 1777984428 | 19.44° C | 58% | 1008 hPa | 0 mm | 2.24 m/s, 318° | 803 W/m² | - |
| 1777984367 | 19.44° C | 58% | 1008 hPa | 0 mm | 2.24 m/s, 335° | 253 W/m² | - |
| 1777984303 | 19.44° C | 58% | 1008 hPa | 0 mm | 2.24 m/s, 321° | 253 W/m² | - |
| 1777984245 | 19.44° C | 57% | 1008 hPa | 0 mm | 1.79 m/s, 333° | 253 W/m² | - |
| 1777984185 | 19.44° C | 58% | 1008 hPa | 0 mm | 1.79 m/s, 319° | 206 W/m² | - |
| 1777984126 | 19.44° C | 58% | 1008 hPa | 0 mm | 1.79 m/s, 312° | 167 W/m² | - |
| 1777984062 | 19.44° C | 58% | 1008 hPa | 0 mm | 1.79 m/s, 317° | 153 W/m² | - |
| 1777984002 | 19.44° C | 58% | 1008 hPa | 0 mm | 1.79 m/s, 314° | 142 W/m² | - |
| 1777983939 | 19.44° C | 57% | 1008.1 hPa | 0 mm | 1.79 m/s, 324° | 132 W/m² | - |
| 1777983883 | 19.44° C | 58% | 1008.1 hPa | 0 mm | 1.79 m/s, 322° | 125 W/m² | - |
| 1777983822 | 19.44° C | 58% | 1008.1 hPa | 0 mm | 1.34 m/s, 318° | 116 W/m² | - |
| 1777983762 | 19.44° C | 59% | 1008 hPa | 0 mm | 1.79 m/s, 332° | 116 W/m² | - |
| 1777983699 | 19.44° C | 59% | 1008.1 hPa | 0 mm | 1.79 m/s, 329° | 120 W/m² | - |
| 1777983641 | 19.44° C | 59% | 1008.1 hPa | 0 mm | 1.79 m/s, 333° | 125 W/m² | - |
| 1777983582 | 19.44° C | 59% | 1008 hPa | 0 mm | 2.24 m/s, 326° | 130 W/m² | - |
| 1777983519 | 19.44° C | 59% | 1008 hPa | 0 mm | 2.24 m/s, 322° | 144 W/m² | - |
| 1777983459 | 19.44° C | 59% | 1008.1 hPa | 0 mm | 1.79 m/s, 329° | 149 W/m² | - |
| 1777983401 | 19.44° C | 58% | 1008.1 hPa | 0 mm | 1.79 m/s, 332° | 153 W/m² | - |
| 1777983354 | 19.44° C | 59% | 1008 hPa | 0 mm | 1.79 m/s, 331° | 155 W/m² | - |
| 1777983285 | 19.44° C | 58% | 1008.1 hPa | 0 mm | 1.79 m/s, 327° | 155 W/m² | - |
| 1777983220 | 19.44° C | 58% | 1008.1 hPa | 0 mm | 1.79 m/s, 331° | 155 W/m² | - |
| 1777983158 | 19.44° C | 59% | 1008.1 hPa | 0 mm | 1.79 m/s, 332° | 153 W/m² | - |
| 1777983099 | 19.44° C | 59% | 1008.1 hPa | 0 mm | 1.79 m/s, 327° | 153 W/m² | - |
* Rain latest hour (hover to see other rain measurements)
** Current wind speed in m/s (hover to see current wind gust speed)